| time (UTC) | temp F | wind direction | speed MPH | gust MPH | rain 1hr in | rain 24hr in | rain mn in | humidity % | barometer mb |
| 20260904022205 | 55 | 240 | 9.0 | 17.0 | 0.01 | 0.49 | 0.01 | 90 | 1005.9 |
| 20260904021704 | 55 | 256 | 8.0 | 15.0 | 0.01 | 0.49 | 0.01 | 90 | 1005.6 |
| 20260904021204 | 55 | 248 | 8.0 | 18.0 | 0.01 | 0.49 | 0.01 | 90 | 1005.6 |
| 20260904020704 | 55 | 241 | 11.0 | 17.0 | 0.01 | 0.49 | 0.01 | 90 | 1005.8 |
| 20260904020204 | 55 | 252 | 9.0 | 15.0 | 0.00 | 0.48 | 0.00 | 90 | 1005.9 |
| 20260904015704 | 55 | 243 | 9.0 | 18.0 | 0.00 | 0.48 | 0.00 | 90 | 1005.8 |
| 20260904015204 | 56 | 255 | 9.0 | 15.0 | 0.00 | 0.48 | 0.00 | 90 | 1005.9 |
| 20260904014704 | 56 | 241 | 10.0 | 17.0 | 0.00 | 0.49 | 0.00 | 90 | 1005.9 |
| 20260904013704 | 56 | 250 | 6.0 | 12.0 | 0.00 | 0.50 | 0.00 | 90 | 1006.1 |
| 20260904013204 | 56 | 271 | 5.0 | 10.0 | 0.00 | 0.51 | 0.00 | 90 | 1005.8 |
| 20260904012704 | 56 | 240 | 5.0 | 9.0 | 0.00 | 0.51 | 0.00 | 91 | 1005.9 |
| 20260904011704 | 56 | 248 | 8.0 | 12.0 | 0.00 | 0.51 | 0.00 | 91 | 1006.0 |
| 20260904011204 | 56 | 265 | 9.0 | 12.0 | 0.00 | 0.51 | 0.00 | 91 | 1005.9 |
| 20260904010705 | 56 | 245 | 7.0 | 12.0 | 0.00 | 0.51 | 0.00 | 91 | 1005.8 |
| 20260904005704 | 56 | 249 | 7.0 | 12.0 | 0.00 | 0.51 | 0.00 | 92 | 1005.9 |
| 20260904005204 | 56 | 249 | 7.0 | 14.0 | 0.00 | 0.51 | 0.00 | 92 | 1006.1 |
| 20260904004704 | 56 | 244 | 7.0 | 14.0 | 0.00 | 0.51 | 0.00 | 93 | 1006.0 |
| 20260904004203 | 56 | 260 | 9.0 | 13.0 | 0.00 | 0.51 | 0.00 | 93 | 1005.9 |
| 20260904003703 | 56 | 247 | 7.0 | 14.0 | 0.00 | 0.51 | 0.00 | 93 | 1006.0 |
| 20260904003204 | 56 | 245 | 7.0 | 13.0 | 0.00 | 0.51 | 0.00 | 93 | 1006.1 |
| 20260904002704 | 56 | 251 | 5.0 | 10.0 | 0.00 | 0.51 | 0.00 | 93 | 1006.1 |
| 20260904002203 | 56 | 247 | 5.0 | 10.0 | 0.00 | 0.51 | 0.00 | 94 | 1006.3 |
| 20260904001704 | 56 | 251 | 5.0 | 10.0 | 0.00 | 0.51 | 0.00 | 94 | 1006.2 |
| 20260904000704 | 56 | 259 | 5.0 | 8.0 | 0.00 | 0.51 | 0.00 | 94 | 1006.2 |
| 20260904000204 | 56 | 253 | 6.0 | 9.0 | 0.00 | 0.51 | 0.00 | 94 | 1006.5 |
| 20260903235705 | 56 | 247 | 7.0 | 10.0 | 0.00 | 0.51 | 0.00 | 94 | 1006.3 |
| 20260903235204 | 56 | 257 | 5.0 | 10.0 | 0.00 | 0.51 | 0.00 | 94 | 1006.3 |
| 20260903234704 | 56 | 246 | 4.0 | 8.0 | 0.00 | 0.51 | 0.00 | 94 | 1006.0 |
| 20260903234204 | 56 | 248 | 5.0 | 9.0 | 0.00 | 0.51 | 0.00 | 94 | 1006.0 |
| 20260903233205 | 56 | 245 | 6.0 | 10.0 | 0.00 | 0.51 | 0.00 | 95 | 1006.4 |
| 20260903232204 | 56 | 241 | 5.0 | 9.0 | 0.00 | 0.51 | 0.00 | 95 | 1005.9 |
| 20260903231204 | 56 | 253 | 5.0 | 10.0 | 0.00 | 0.51 | 0.00 | 95 | 1006.2 |
| 20260903230704 | 56 | 241 | 5.0 | 7.0 | 0.00 | 0.51 | 0.00 | 95 | 1006.2 |
| 20260903230204 | 56 | 246 | 5.0 | 10.0 | 0.00 | 0.51 | 0.00 | 95 | 1006.2 |
| 20260903225204 | 56 | 242 | 6.0 | 12.0 | 0.00 | 0.51 | 0.48 | 96 | 1006.1 |
| 20260903224704 | 56 | 242 | 5.0 | 9.0 | 0.00 | 0.51 | 0.48 | 96 | 1006.0 |
| 20260903223703 | 56 | 252 | 7.0 | 13.0 | 0.00 | 0.51 | 0.48 | 96 | 1006.2 |
| 20260903223204 | 56 | 245 | 6.0 | 10.0 | 0.00 | 0.52 | 0.48 | 96 | 1006.4 |
| 20260903222204 | 56 | 254 | 6.0 | 10.0 | 0.07 | 0.52 | 0.48 | 96 | 1006.5 |
| 20260903221703 | 56 | 246 | 4.0 | 7.0 | 0.17 | 0.52 | 0.48 | 96 | 1006.5 |
| 20260903221205 | 56 | 252 | 6.0 | 8.0 | 0.20 | 0.52 | 0.48 | 96 | 1006.5 |
| 20260903220704 | 56 | 239 | 5.0 | 10.0 | 0.22 | 0.52 | 0.48 | 96 | 1006.8 |
| 20260903220204 | 56 | 246 | 5.0 | 8.0 | 0.24 | 0.52 | 0.48 | 96 | 1006.4 |
| 20260903215703 | 56 | 257 | 5.0 | 12.0 | 0.24 | 0.53 | 0.48 | 96 | 1006.3 |
| 20260903215203 | 56 | 242 | 5.0 | 12.0 | 0.24 | 0.53 | 0.48 | 96 | 1006.3 |
| 20260903214704 | 56 | 241 | 5.0 | 12.0 | 0.24 | 0.53 | 0.48 | 96 | 1006.4 |
| 20260903213704 | 56 | 250 | 8.0 | 13.0 | 0.24 | 0.53 | 0.48 | 95 | 1006.5 |
| 20260903213203 | 56 | 251 | 7.0 | 13.0 | 0.24 | 0.53 | 0.48 | 95 | 1006.5 |
| 20260903212704 | 57 | 261 | 6.0 | 14.0 | 0.23 | 0.51 | 0.46 | 95 | 1006.6 |
| 20260903212204 | 57 | 267 | 8.0 | 13.0 | 0.17 | 0.46 | 0.41 | 95 | 1006.6 |
| 20260903211703 | 58 | 263 | 6.0 | 13.0 | 0.07 | 0.35 | 0.31 | 96 | 1006.6 |
| 20260903211204 | 58 | 234 | 5.0 | 13.0 | 0.04 | 0.32 | 0.28 | 96 | 1006.4 |
| 20260903210704 | 58 | 236 | 5.0 | 10.0 | 0.02 | 0.31 | 0.26 | 95 | 1006.4 |
| 20260903205704 | 58 | 201 | 6.0 | 12.0 | 0.00 | 0.28 | 0.24 | 95 | 1006.5 |
| 20260903205204 | 58 | 224 | 7.0 | 12.0 | 0.00 | 0.28 | 0.24 | 95 | 1006.5 |
| 20260903204704 | 58 | 220 | 10.0 | 16.0 | 0.00 | 0.28 | 0.24 | 96 | 1006.4 |
| 20260903204204 | 58 | 223 | 10.0 | 17.0 | 0.00 | 0.28 | 0.24 | 96 | 1006.3 |
| 20260903203704 | 58 | 226 | 6.0 | 13.0 | 0.00 | 0.28 | 0.24 | 96 | 1006.3 |
| 20260903202705 | 58 | 235 | 7.0 | 14.0 | 0.00 | 0.28 | 0.24 | 95 | 1006.4 |
| 20260903202205 | 58 | 221 | 7.0 | 12.0 | 0.00 | 0.28 | 0.24 | 95 | 1006.5 |
| 20260903201704 | 58 | 218 | 7.0 | 12.0 | 0.00 | 0.28 | 0.24 | 95 | 1006.5 |
| 20260903200704 | 58 | 219 | 7.0 | 15.0 | 0.00 | 0.28 | 0.24 | 95 | 1006.3 |
| 20260903200203 | 58 | 226 | 9.0 | 12.0 | 0.00 | 0.28 | 0.24 | 95 | 1006.4 |
| 20260903195704 | 58 | 248 | 7.0 | 14.0 | 0.00 | 0.28 | 0.24 | 96 | 1007.0 |
| 20260903195204 | 58 | 223 | 7.0 | 12.0 | 0.00 | 0.28 | 0.24 | 95 | 1006.7 |
| 20260903194704 | 57 | 233 | 7.0 | 12.0 | 0.00 | 0.28 | 0.24 | 96 | 1006.9 |
| 20260903193704 | 57 | 224 | 7.0 | 14.0 | 0.00 | 0.28 | 0.24 | 96 | 1006.9 |
| 20260903193204 | 57 | 225 | 8.0 | 15.0 | 0.00 | 0.28 | 0.24 | 96 | 1007.0 |
| 20260903192704 | 57 | 228 | 7.0 | 15.0 | 0.01 | 0.28 | 0.24 | 96 | 1006.9 |
| 20260903192204 | 57 | 234 | 6.0 | 12.0 | 0.01 | 0.28 | 0.24 | 96 | 1007.0 |
| 20260903191703 | 57 | 227 | 9.0 | 15.0 | 0.01 | 0.28 | 0.24 | 96 | 1007.2 |
| 20260903191204 | 57 | 221 | 10.0 | 15.0 | 0.01 | 0.28 | 0.24 | 96 | 1007.2 |
| 20260903190703 | 57 | 215 | 8.0 | 17.0 | 0.01 | 0.29 | 0.24 | 96 | 1007.2 |
| 20260903190204 | 57 | 242 | 6.0 | 13.0 | 0.01 | 0.29 | 0.24 | 96 | 1007.3 |
| 20260903185704 | 57 | 230 | 6.0 | 13.0 | 0.01 | 0.29 | 0.24 | 96 | 1007.1 |
| 20260903185205 | 57 | 231 | 7.0 | 12.0 | 0.01 | 0.29 | 0.24 | 96 | 1007.3 |
| 20260903184204 | 57 | 228 | 7.0 | 15.0 | 0.02 | 0.29 | 0.24 | 96 | 1007.3 |
| 20260903183204 | 57 | 237 | 7.0 | 13.0 | 0.02 | 0.29 | 0.24 | 95 | 1007.8 |
| 20260903182704 | 57 | 238 | 7.0 | 13.0 | 0.01 | 0.28 | 0.23 | 95 | 1007.7 |
| 20260903182204 | 56 | 230 | 5.0 | 10.0 | 0.02 | 0.28 | 0.23 | 95 | 1007.6 |
| 20260903181703 | 56 | 227 | 7.0 | 12.0 | 0.02 | 0.28 | 0.23 | 95 | 1007.8 |
| 20260903181204 | 56 | 210 | 6.0 | 12.0 | 0.02 | 0.28 | 0.23 | 95 | 1007.7 |
| 20260903180204 | 57 | 217 | 6.0 | 12.0 | 0.03 | 0.28 | 0.23 | 95 | 1007.8 |
| 20260903175204 | 57 | 219 | 6.0 | 13.0 | 0.04 | 0.28 | 0.23 | 95 | 1007.9 |
| 20260903174204 | 56 | 223 | 7.0 | 15.0 | 0.04 | 0.28 | 0.22 | 95 | 1008.3 |
| 20260903173704 | 57 | 218 | 10.0 | 20.0 | 0.05 | 0.28 | 0.22 | 95 | 1008.3 |
| 20260903173204 | 57 | 221 | 10.0 | 16.0 | 0.05 | 0.28 | 0.22 | 95 | 1008.4 |
| 20260903172704 | 57 | 225 | 8.0 | 15.0 | 0.06 | 0.28 | 0.22 | 95 | 1008.4 |
| 20260903172204 | 57 | 216 | 10.0 | 16.0 | 0.06 | 0.27 | 0.21 | 95 | 1008.5 |
| 20260903171705 | 57 | 221 | 10.0 | 15.0 | 0.06 | 0.27 | 0.21 | 95 | 1008.4 |
| 20260903171204 | 57 | 215 | 10.0 | 16.0 | 0.06 | 0.26 | 0.20 | 95 | 1008.5 |
| 20260903170705 | 58 | 217 | 8.0 | 16.0 | 0.07 | 0.26 | 0.20 | 95 | 1008.4 |
| 20260903165204 | 58 | 223 | 7.0 | 14.0 | 0.07 | 0.24 | 0.19 | 95 | 1008.5 |
| 20260903164204 | 58 | 214 | 9.0 | 16.0 | 0.09 | 0.24 | 0.18 | 94 | 1008.6 |
| 20260903163704 | 58 | 243 | 12.0 | 17.0 | 0.09 | 0.23 | 0.17 | 94 | 1008.7 |
| 20260903162704 | 59 | 234 | 7.0 | 13.0 | 0.08 | 0.22 | 0.17 | 94 | 1008.9 |
| 20260903162204 | 59 | 238 | 5.0 | 9.0 | 0.07 | 0.21 | 0.16 | 94 | 1008.9 |
| 20260903161204 | 59 | 233 | 9.0 | 16.0 | 0.06 | 0.20 | 0.14 | 94 | 1008.9 |
| 20260903160704 | 59 | 238 | 10.0 | 15.0 | 0.05 | 0.19 | 0.13 | 93 | 1009.0 |
| 20260903160204 | 59 | 221 | 7.0 | 14.0 | 0.04 | 0.18 | 0.13 | 94 | 1009.0 |
| 20260903155704 | 59 | 230 | 7.0 | 13.0 | 0.03 | 0.17 | 0.12 | 93 | 1009.0 |
| 20260903155203 | 59 | 238 | 9.0 | 15.0 | 0.03 | 0.17 | 0.12 | 93 | 1009.1 |
| 20260903154704 | 59 | 234 | 9.0 | 16.0 | 0.02 | 0.16 | 0.10 | 93 | 1009.2 |
| 20260903154204 | 59 | 227 | 7.0 | 13.0 | 0.01 | 0.15 | 0.09 | 93 | 1009.0 |
| 20260903153704 | 59 | 230 | 7.0 | 14.0 | 0.00 | 0.14 | 0.09 | 93 | 1009.1 |
| 20260903152704 | 60 | 223 | 9.0 | 16.0 | 0.01 | 0.14 | 0.09 | 93 | 1009.2 |
| 20260903150704 | 60 | 236 | 7.0 | 12.0 | 0.01 | 0.14 | 0.09 | 93 | 1009.3 |
| 20260903145704 | 60 | 237 | 7.0 | 12.0 | 0.02 | 0.14 | 0.09 | 93 | 1009.4 |
| 20260903145203 | 60 | 236 | 6.0 | 13.0 | 0.02 | 0.14 | 0.09 | 93 | 1009.6 |
| 20260903144703 | 60 | 240 | 8.0 | 17.0 | 0.02 | 0.14 | 0.09 | 93 | 1009.7 |
| 20260903143204 | 60 | 245 | 9.0 | 13.0 | 0.02 | 0.14 | 0.09 | 93 | 1009.6 |
| 20260903142703 | 60 | 235 | 7.0 | 14.0 | 0.01 | 0.13 | 0.08 | 93 | 1009.6 |
| 20260903142204 | 60 | 243 | 6.0 | 14.0 | 0.01 | 0.13 | 0.08 | 93 | 1009.7 |
| 20260903141704 | 60 | 224 | 8.0 | 12.0 | 0.01 | 0.13 | 0.08 | 93 | 1009.7 |
| 20260903141203 | 60 | 209 | 10.0 | 12.0 | 0.01 | 0.13 | 0.08 | 93 | 1009.7 |
| 20260903140703 | 60 | 245 | 12.0 | 20.0 | 0.02 | 0.13 | 0.08 | 93 | 1009.7 |
| 20260903135703 | 60 | 262 | 9.0 | 16.0 | 0.01 | 0.13 | 0.07 | 93 | 1010.1 |
| 20260903135204 | 60 | 229 | 8.0 | 14.0 | 0.01 | 0.13 | 0.07 | 93 | 1010.1 |
| 20260903134705 | 60 | 218 | 9.0 | 20.0 | 0.01 | 0.13 | 0.07 | 93 | 1010.1 |
| 20260903134204 | 60 | 222 | 7.0 | 14.0 | 0.01 | 0.13 | 0.07 | 93 | 1010.2 |
| 20260903133203 | 60 | 232 | 10.0 | 16.0 | 0.02 | 0.13 | 0.07 | 92 | 1010.3 |
| 20260903132704 | 60 | 245 | 10.0 | 15.0 | 0.02 | 0.13 | 0.07 | 92 | 1010.5 |
| 20260903132203 | 60 | 243 | 9.0 | 16.0 | 0.02 | 0.13 | 0.07 | 92 | 1010.4 |
| 20260903131204 | 60 | 230 | 8.0 | 16.0 | 0.02 | 0.13 | 0.07 | 92 | 1010.5 |
| 20260903130703 | 60 | 234 | 11.0 | 18.0 | 0.01 | 0.12 | 0.06 | 91 | 1010.6 |
| 20260903125704 | 60 | 235 | 9.0 | 14.0 | 0.01 | 0.12 | 0.06 | 91 | 1010.4 |
| 20260903125204 | 60 | 233 | 9.0 | 20.0 | 0.01 | 0.12 | 0.06 | 90 | 1010.5 |
| 20260903124704 | 60 | 237 | 9.0 | 15.0 | 0.01 | 0.12 | 0.06 | 90 | 1010.6 |
| 20260903124204 | 61 | 239 | 7.0 | 13.0 | 0.01 | 0.12 | 0.06 | 90 | 1010.6 |
| 20260903123704 | 61 | 230 | 7.0 | 14.0 | 0.01 | 0.12 | 0.06 | 89 | 1010.6 |
| 20260903123204 | 61 | 232 | 7.0 | 15.0 | 0.00 | 0.11 | 0.06 | 88 | 1010.5 |
| 20260903122703 | 61 | 246 | 7.0 | 15.0 | 0.00 | 0.11 | 0.06 | 87 | 1010.3 |
| 20260903122204 | 61 | 257 | 9.0 | 14.0 | 0.00 | 0.11 | 0.06 | 87 | 1010.3 |
| 20260903121704 | 61 | 245 | 7.0 | 16.0 | 0.00 | 0.11 | 0.06 | 86 | 1010.2 |
| 20260903121203 | 61 | 239 | 9.0 | 17.0 | 0.00 | 0.11 | 0.06 | 85 | 1010.3 |
| 20260903120704 | 62 | 237 | 12.0 | 21.0 | 0.00 | 0.11 | 0.06 | 85 | 1010.5 |
| 20260903120203 | 62 | 243 | 11.0 | 17.0 | 0.00 | 0.11 | 0.06 | 85 | 1010.3 |
| 20260903115704 | 62 | 248 | 12.0 | 20.0 | 0.00 | 0.11 | 0.06 | 85 | 1010.4 |
| 20260903115203 | 62 | 239 | 12.0 | 21.0 | 0.00 | 0.11 | 0.06 | 85 | 1010.1 |
| 20260903114704 | 63 | 244 | 10.0 | 20.0 | 0.00 | 0.11 | 0.06 | 85 | 1010.0 |
| 20260903114204 | 63 | 238 | 10.0 | 18.0 | 0.00 | 0.11 | 0.06 | 85 | 1010.0 |
| 20260903113704 | 62 | 242 | 12.0 | 20.0 | 0.00 | 0.11 | 0.06 | 84 | 1009.9 |
| 20260903113204 | 63 | 230 | 13.0 | 20.0 | 0.00 | 0.11 | 0.06 | 85 | 1009.9 |
| 20260903112704 | 63 | 230 | 10.0 | 18.0 | 0.00 | 0.11 | 0.06 | 86 | 1009.8 |
| 20260903112204 | 63 | 242 | 11.0 | 22.0 | 0.00 | 0.11 | 0.06 | 86 | 1010.1 |
| 20260903111704 | 63 | 244 | 10.0 | 20.0 | 0.00 | 0.11 | 0.06 | 87 | 1010.1 |
| 20260903111203 | 62 | 233 | 10.0 | 22.0 | 0.00 | 0.11 | 0.06 | 88 | 1010.1 |
| 20260903110704 | 62 | 239 | 10.0 | 20.0 | 0.00 | 0.11 | 0.06 | 87 | 1010.1 |
| 20260903110204 | 62 | 237 | 10.0 | 18.0 | 0.00 | 0.11 | 0.06 | 88 | 1010.0 |
| 20260903105703 | 62 | 260 | 12.0 | 18.0 | 0.00 | 0.11 | 0.06 | 88 | 1010.0 |
| 20260903105204 | 63 | 244 | 10.0 | 16.0 | 0.00 | 0.11 | 0.06 | 88 | 1009.9 |
| 20260903104703 | 63 | 238 | 9.0 | 20.0 | 0.00 | 0.11 | 0.06 | 88 | 1009.7 |
| 20260903104203 | 64 | 238 | 12.0 | 20.0 | 0.00 | 0.11 | 0.06 | 89 | 1009.8 |
| 20260903103704 | 63 | 241 | 10.0 | 22.0 | 0.00 | 0.11 | 0.06 | 89 | 1009.6 |
| 20260903103203 | 64 | 237 | 13.0 | 22.0 | 0.00 | 0.11 | 0.06 | 89 | 1009.6 |
| 20260903102205 | 64 | 228 | 13.0 | 21.0 | 0.00 | 0.11 | 0.06 | 91 | 1009.3 |
| 20260903101704 | 64 | 225 | 9.0 | 18.0 | 0.00 | 0.11 | 0.06 | 92 | 1009.3 |
| 20260903101204 | 63 | 231 | 12.0 | 18.0 | 0.01 | 0.11 | 0.06 | 92 | 1009.3 |
| 20260903100703 | 63 | 248 | 10.0 | 16.0 | 0.01 | 0.11 | 0.06 | 93 | 1009.2 |
| 20260903100204 | 63 | 251 | 9.0 | 15.0 | 0.02 | 0.11 | 0.06 | 94 | 1009.5 |
| 20260903095704 | 62 | 242 | 10.0 | 18.0 | 0.02 | 0.11 | 0.06 | 94 | 1009.5 |
| 20260903095204 | 62 | 244 | 10.0 | 17.0 | 0.02 | 0.11 | 0.06 | 94 | 1009.9 |
| 20260903094704 | 62 | 216 | 7.0 | 15.0 | 0.02 | 0.11 | 0.06 | 95 | 1009.9 |
| 20260903094204 | 61 | 242 | 6.0 | 12.0 | 0.02 | 0.11 | 0.06 | 95 | 1009.9 |
| 20260903093204 | 61 | 219 | 10.0 | 14.0 | 0.02 | 0.11 | 0.06 | 95 | 1010.0 |
| 20260903092704 | 60 | 247 | 10.0 | 16.0 | 0.02 | 0.11 | 0.06 | 95 | 1010.1 |
| 20260903092204 | 60 | 214 | 8.0 | 15.0 | 0.02 | 0.11 | 0.06 | 94 | 1010.2 |
| 20260903091703 | 60 | 190 | 8.0 | 15.0 | 0.02 | 0.11 | 0.06 | 94 | 1010.1 |
| 20260903090703 | 59 | 201 | 9.0 | 15.0 | 0.02 | 0.10 | 0.05 | 94 | 1010.1 |
| 20260903090203 | 59 | 203 | 9.0 | 16.0 | 0.02 | 0.10 | 0.04 | 94 | 1010.2 |
| 20260903085203 | 59 | 196 | 7.0 | 12.0 | 0.02 | 0.10 | 0.04 | 94 | 1010.2 |
| 20260903084704 | 59 | 204 | 7.0 | 12.0 | 0.02 | 0.10 | 0.04 | 94 | 1010.1 |
| 20260903084204 | 58 | 218 | 7.0 | 14.0 | 0.02 | 0.10 | 0.04 | 95 | 1010.3 |
| 20260903083704 | 58 | 192 | 5.0 | 9.0 | 0.02 | 0.11 | 0.04 | 94 | 1010.3 |
| 20260903083204 | 58 | 192 | 4.0 | 6.0 | 0.02 | 0.11 | 0.04 | 94 | 1010.4 |
| 20260903081704 | 58 | 226 | 5.0 | 9.0 | 0.02 | 0.12 | 0.04 | 94 | 1010.3 |
| 20260903081204 | 58 | 206 | 5.0 | 8.0 | 0.02 | 0.12 | 0.03 | 94 | 1010.4 |
| 20260903080703 | 58 | 188 | 7.0 | 12.0 | 0.01 | 0.11 | 0.02 | 94 | 1010.6 |
| 20260903080203 | 58 | 216 | 5.0 | 9.0 | 0.00 | 0.11 | 0.02 | 94 | 1010.5 |
| 20260903075703 | 58 | 215 | 6.0 | 9.0 | 0.00 | 0.11 | 0.02 | 94 | 1010.5 |
| 20260903075204 | 58 | 214 | 5.0 | 9.0 | 0.00 | 0.11 | 0.02 | 94 | 1010.5 |
| 20260903074704 | 58 | 212 | 6.0 | 10.0 | 0.00 | 0.11 | 0.02 | 94 | 1010.4 |
| 20260903073704 | 58 | 228 | 5.0 | 10.0 | 0.00 | 0.11 | 0.02 | 94 | 1010.7 |
| 20260903072703 | 58 | 216 | 5.0 | 9.0 | 0.00 | 0.11 | 0.02 | 94 | 1010.6 |
| 20260903072205 | 58 | 219 | 5.0 | 9.0 | 0.00 | 0.11 | 0.02 | 94 | 1010.5 |
| 20260903071704 | 58 | 225 | 6.0 | 10.0 | 0.00 | 0.11 | 0.02 | 94 | 1010.6 |
| 20260903070204 | 58 | 220 | 4.0 | 8.0 | 0.00 | 0.11 | 0.02 | 94 | 1010.7 |
| 20260903065705 | 58 | 211 | 5.0 | 8.0 | 0.01 | 0.11 | 0.02 | 94 | 1010.8 |
| 20260903065204 | 57 | 224 | 5.0 | 8.0 | 0.01 | 0.11 | 0.02 | 94 | 1010.8 |
| 20260903064705 | 57 | 223 | 5.0 | 10.0 | 0.01 | 0.11 | 0.02 | 94 | 1010.8 |
| 20260903063704 | 56 | 209 | 4.0 | 7.0 | 0.01 | 0.11 | 0.02 | 94 | 1010.4 |
| 20260903063204 | 56 | 215 | 4.0 | 7.0 | 0.01 | 0.11 | 0.02 | 94 | 1010.7 |
| 20260903062703 | 55 | 220 | 4.0 | 6.0 | 0.01 | 0.11 | 0.02 | 94 | 1010.7 |
| 20260903062204 | 55 | 201 | 4.0 | 8.0 | 0.01 | 0.11 | 0.02 | 94 | 1010.5 |
| 20260903061705 | 55 | 211 | 3.0 | 6.0 | 0.01 | 0.11 | 0.02 | 93 | 1010.5 |
| 20260903061203 | 55 | 204 | 2.0 | 5.0 | 0.01 | 0.11 | 0.02 | 93 | 1010.4 |
| 20260903060705 | 55 | 201 | 2.0 | 5.0 | 0.01 | 0.11 | 0.02 | 93 | 1010.2 |